Location: La Trinit�
(48.1620°N, 3.4512°W)
Time: 16:42:36
(UTC+00:00)

OBJECT-B - Pass Details

Date: 08 May 2021
Orbit: 414 x 423 km, 97.0° (Epoch: 05 June)

Event Time Altitude Azimuth Distance (km) Brightness Sun altitude
Rises 20:23:24 0° 184° (S) 2,370 4.2 -7.3°
Reaches altitude 10° 20:25:29 10° 194° (SSW) 1,512 3.3 -7.6°
Maximum altitude 20:28:30 36° 262° (W) 696 2.3 -8.0°
Drops below altitude 10° 20:31:34 10° 331° (NNW) 1,528 4.8 -8.4°
Sets 20:33:41 0° 341° (NNW) 2,400 5.7 -8.7°
